This demonstration page uses our WeatherBlox Daily Observations layout. Learn more.

Left ArrowRight Arrow

Hourly Observations for March 18, 2015

Temp ( °F °C ) Dew Point ( °F °C ) Humidity (%) Winds ( mph kmh ) Pressure ( in mb ) Visibility ( mi km ) Precip ( " mm )
12:51 am 00:51 Cloudy 59 15 55 12.8 87 87 E 8 13 29.93 1013 10 16 0.00 0.03
1:51 am 01:51 Cloudy 59 15 55 12.8 87 87 E 8 13 29.92 1013 10 16 0.00 0.00
2:51 am 02:51 Cloudy 58 14.4 55 12.8 90 90 ESE 6 9 29.91 1013 10 16 0.00 0.00
3:51 am 03:51 Cloudy 58 14.4 55 12.8 90 90 E 7 11 29.90 1013 10 16 0.00 0.00
4:51 am 04:51 Cloudy with Light Rain 58 14.4 55 12.8 90 90 SE 6 9 29.90 1013 10 16 0.00 0.03
5:51 am 05:51 Mostly Cloudy 58 14.4 54 12.2 87 87 SE 9 15 29.90 1012 10 16 0.01 0.25
6:51 am 06:51 Cloudy 58 14.4 54 12.2 87 87 ESE 8 13 29.92 1013 10 16 0.00 0.00
7:51 am 07:51 Cloudy 58 14.4 55 12.8 90 90 E 5 7 29.95 1014 10 16 0.00 0.00
8:51 am 08:51 Cloudy with Light Rain 59 15 56 13.3 90 90 ESE 5 7 29.97 1015 10 16 0.00 0.03
9:51 am 09:51 Cloudy 61 16.1 55 12.8 81 81 SSE 7 11 29.98 1015 10 16 0.00 0.03
10:51 am 10:51 Cloudy 63 17.2 54 12.2 73 73 Calm 29.98 1015 10 16 0.00 0.03
11:51 am 11:51 Cloudy with Light Rain 63 17.2 56 13.3 78 78 SSE 5 7 29.97 1015 10 16 0.00 0.03
12:51 pm 12:51 Mostly Cloudy 65 18.3 53 11.7 66 66 W 3 6 29.93 1014 10 16 0.00 0.03
1:51 pm 13:51 Partly Cloudy 68 20 46 7.8 45 45 NNW 7 11 29.90 1012 10 16 0.00 0.00
2:51 pm 14:51 Cloudy 68 20 45 7.2 44 44 WSW 8 13 29.88 1012 10 16 0.00 0.00
3:51 pm 15:51 Cloudy with Light Rain 67 19.4 45 7.2 45 45 W 14 22 29.87 1011 10 16 0.00 0.03
4:51 pm 16:51 Cloudy with Light Rain 63 17.2 48 8.9 58 58 NW 13 20 29.88 1012 10 16 0.00 0.03
5:51 pm 17:51 Cloudy 63 17.2 51 10.6 65 65 WNW 5 7 29.88 1012 10 16 0.00 0.03
6:51 pm 18:51 Cloudy 60 15.6 51 10.6 72 72 W 3 6 29.88 1012 10 16 0.00 0.00
7:51 pm 19:51 Cloudy 59 15 50 10 72 72 NNW 7 11 29.90 1012 10 16 0.00 0.00
8:51 pm 20:51 Mostly Cloudy 59 15 50 10 72 72 NW 9 15 29.92 1013 10 16 0.00 0.03
9:51 pm 21:51 Cloudy with Light Rain 58 14.4 49 9.4 72 72 W 12 19 29.93 1014 10 16 0.00 0.03
10:51 pm 22:51 Cloudy with Light Rain 54 12.2 52 11.1 93 93 W 6 9 29.95 1014 8 13 0.04 1.02
11:51 pm 23:51 Cloudy with Light Rain 54 12.2 52 11.1 93 93 NNW 5 7 29.95 1014 8 13 0.05 1.27

Powered by AerisWeather